Weather History for Crisp Cnty-Cordele AP, Cordel, GA

Change the Weather History Date:

Thursday, January 23, 2014

  Actual Average (KABY) Record (KABY)
Temperature  
Mean Temperature 40 °F 50 °F  
Max Temperature 51 °F 61 °F 80 °F (1937)
Min Temperature 30 °F 38 °F 12 °F (1985)
Degree Days  
Heating Degree Days 25 16  
Month to date heating degree days 368  
Since 1 July heating degree days 1081  
Cooling Degree Days 0 0  
Month to date cooling degree days 0  
Year to date cooling degree days 0  
Moisture  
Dew Point 17 °F    
Average Humidity 44    
Maximum Humidity 77    
Minimum Humidity 20    
Precipitation  
Precipitation 0.00 in 0.20 in 0.12 in (2006)
Month to date precipitation 3.23  
Year to date precipitation 3.23  
Sea Level Pressure  
Sea Level Pressure 30.35 in    
Wind  
Wind Speed 2 mph (NNW)    
Max Wind Speed 13 mph    
Max Gust Speed 16 mph    
Visibility 10 miles    
Events      
T = Trace of Precipitation, MM = Missing Value Source: NWS Daily Summary

Daily Weather History Graph

Daily Weather History Graph

Search for Another Location

Airport:

Trip Planner

Search our weather history database for the weather conditions in past years. The results will help you decide how hot, cold, wet, or windy it might be!

Date:

Astronomy

Jan. 23, 2014 Rise Set
Actual Time 7:33 AM EST 6:00 PM EST
Civil Twilight 7:07 AM EST 6:26 PM EST
Nautical Twilight 6:37 AM EST 6:56 PM EST
Astronomical Twilight 6:08 AM EST 7:25 PM EST
Moon 12:05 AM EST (1/23) 11:35 AM EST (1/23)
Length of Visible Light 11h 19m
Length of Day
10h 27m
Waning Gibbous, 55% of the Moon is Illuminated
Jan 23
Waning Gibbous
Jan 24
Last Quarter
Jan 30
New
Feb 6
First Quarter
Feb 14
Full

Hourly Weather History & Observations

Time (EST) Temp. Windchill Dew Point Humidity Pressure Visibility Wind Dir Wind Speed Gust Speed Precip Events Conditions
12:15 AM 32.0 °F - 19.6 °F 60% 30.21 in 10.0 mi Calm Calm - N/A   Clear
12:35 AM 31.8 °F - 21.6 °F 66% 30.21 in 10.0 mi Calm Calm - N/A   Clear
12:55 AM 32.0 °F - 21.9 °F 66% 30.21 in 10.0 mi Calm Calm - N/A   Clear
1:15 AM 32.0 °F - 24.6 °F 74% 30.23 in 10.0 mi Calm Calm - N/A   Clear
1:35 AM 32.2 °F - 23.7 °F 71% 30.22 in 10.0 mi Calm Calm - N/A   Clear
1:55 AM 32.7 °F - 24.1 °F 71% 30.22 in 10.0 mi Calm Calm - N/A   Clear
2:15 AM 33.3 °F - 22.6 °F 65% 30.23 in 10.0 mi Calm Calm - N/A   Clear
2:35 AM 32.0 °F - 23.0 °F 69% 30.23 in 10.0 mi Calm Calm - N/A   Clear
2:55 AM 32.0 °F - 22.5 °F 68% 30.23 in 10.0 mi Calm Calm - N/A   Clear
3:15 AM 32.5 °F - 20.3 °F 61% 30.23 in 10.0 mi Calm Calm - N/A   Clear
3:35 AM 31.6 °F - 23.7 °F 73% 30.24 in 10.0 mi Calm Calm - N/A   Clear
3:55 AM 31.3 °F - 24.8 °F 77% 30.25 in 10.0 mi Calm Calm - N/A   Clear
4:15 AM 31.3 °F - 24.1 °F 75% 30.26 in 10.0 mi Calm Calm - N/A   Clear
4:35 AM 31.5 °F - 23.4 °F 72% 30.26 in 10.0 mi Calm Calm - N/A   Clear
4:55 AM 30.9 °F - 23.2 °F 73% 30.27 in 10.0 mi Calm Calm - N/A   Clear
5:15 AM 30.9 °F - 22.5 °F 71% 30.27 in 10.0 mi Calm Calm - N/A   Clear
5:35 AM 30.9 °F - 24.1 °F 76% 30.28 in 10.0 mi Calm Calm - N/A   Clear
5:55 AM 31.1 °F - 24.4 °F 76% 30.30 in 10.0 mi Calm Calm - N/A   Clear
6:15 AM 31.5 °F - 24.6 °F 76% 30.29 in 10.0 mi Calm Calm - N/A   Clear
6:35 AM 32.0 °F - 25.3 °F 76% 30.31 in 10.0 mi Calm Calm - N/A   Clear
6:55 AM 32.4 °F - 23.2 °F 69% 30.32 in 10.0 mi Calm Calm - N/A   Clear
7:15 AM 32.2 °F - 24.4 °F 73% 30.34 in 10.0 mi Calm Calm - N/A   Clear
7:35 AM 32.0 °F - 23.9 °F 72% 30.33 in 10.0 mi Calm Calm - N/A   Clear
7:55 AM 32.2 °F - 22.3 °F 67% 30.34 in 10.0 mi Calm Calm - N/A   Clear
8:15 AM 32.4 °F - 23.9 °F 71% 30.35 in 10.0 mi Calm Calm - N/A   Clear
8:35 AM 33.1 °F - 25.5 °F 74% 30.36 in 10.0 mi Calm Calm - N/A   Clear
8:55 AM 35.2 °F - 20.7 °F 55% 30.37 in 10.0 mi Calm Calm - N/A   Clear
9:15 AM 36.5 °F 33.9 °F 18.3 °F 48% 30.38 in 10.0 mi NNW 3.5 mph - N/A   Clear
9:35 AM 36.3 °F 33.7 °F 17.2 °F 46% 30.39 in 10.0 mi NNW 3.5 mph - N/A   Clear
9:55 AM 37.6 °F 32.3 °F 17.4 °F 44% 30.39 in 10.0 mi North 6.9 mph - N/A   Clear
10:15 AM 40.3 °F 33.4 °F 17.4 °F 40% 30.40 in 10.0 mi North 11.5 mph 16.1 mph N/A   Clear
10:35 AM 40.5 °F 34.6 °F 15.8 °F 37% 30.40 in 10.0 mi North 9.2 mph - N/A   Clear
10:55 AM 41.7 °F 36.7 °F 15.3 °F 34% 30.41 in 10.0 mi North 8.1 mph - N/A   Clear
11:15 AM 43.0 °F 37.7 °F 12.9 °F 30% 30.41 in 10.0 mi NE 9.2 mph - N/A   Clear
11:35 AM 43.3 °F 38.6 °F 13.5 °F 30% 30.40 in 10.0 mi North 8.1 mph - N/A   Clear
11:55 AM 44.4 °F 41.2 °F 12.7 °F 28% 30.39 in 10.0 mi North 5.8 mph - N/A   Clear
12:15 PM 45.9 °F 42.9 °F 12.4 °F 26% 30.39 in 10.0 mi NNE 5.8 mph - N/A   Clear
12:35 PM 45.3 °F 43.0 °F 12.7 °F 27% 30.38 in 10.0 mi NW 4.6 mph - N/A   Clear
12:55 PM 46.0 °F 43.9 °F 11.8 °F 25% 30.38 in 10.0 mi WNW 4.6 mph - N/A   Clear
1:15 PM 45.3 °F 41.1 °F 10.8 °F 25% 30.36 in 10.0 mi WNW 8.1 mph - N/A   Clear
1:35 PM 47.1 °F - 9.5 °F 22% 30.36 in 10.0 mi NW 6.9 mph - N/A   Clear
1:55 PM 47.5 °F - 10.8 °F 23% 30.35 in 10.0 mi NW 5.8 mph - N/A   Clear
2:15 PM 49.1 °F - 10.9 °F 22% 30.35 in 10.0 mi North 9.2 mph - N/A   Clear
2:35 PM 48.7 °F - 11.8 °F 23% 30.35 in 10.0 mi West 5.8 mph - N/A   Clear
2:55 PM 49.5 °F - 10.2 °F 21% 30.34 in 10.0 mi North 9.2 mph 16.1 mph N/A   Clear
3:15 PM 50.0 °F - 11.5 °F 21% 30.34 in 10.0 mi WNW 6.9 mph - N/A   Clear
3:35 PM 50.4 °F - 11.7 °F 21% 30.34 in 10.0 mi WNW 3.5 mph - N/A   Clear
3:55 PM 50.2 °F - 10.4 °F 20% 30.34 in 10.0 mi NNW 3.5 mph - N/A   Clear
4:15 PM 50.4 °F - 11.7 °F 21% 30.35 in 10.0 mi WNW 5.8 mph - N/A   Clear
4:35 PM 50.5 °F - 12.0 °F 21% 30.35 in 10.0 mi NW 5.8 mph - N/A   Clear
4:55 PM 50.5 °F - 12.7 °F 22% 30.36 in 10.0 mi SW 5.8 mph - N/A   Clear
5:15 PM 49.5 °F - 14.0 °F 24% 30.36 in 10.0 mi West 4.6 mph - N/A   Clear
5:35 PM 48.9 °F - 14.7 °F 26% 30.36 in 10.0 mi Calm Calm - N/A   Clear
5:55 PM 47.1 °F - 18.9 °F 33% 30.37 in 10.0 mi Calm Calm - N/A   Clear
6:15 PM 44.8 °F - 21.0 °F 39% 30.37 in 10.0 mi Calm Calm - N/A   Clear
6:35 PM 45.1 °F 42.8 °F 18.3 °F 34% 30.38 in 10.0 mi NW 4.6 mph - N/A   Clear
6:55 PM 46.2 °F 42.7 °F 14.4 °F 28% 30.39 in 10.0 mi NNW 6.9 mph - N/A   Clear
7:15 PM 45.7 °F 43.4 °F 12.7 °F 26% 30.39 in 10.0 mi NNW 4.6 mph - N/A   Clear
7:35 PM 45.5 °F 44.2 °F 11.3 °F 25% 30.39 in 10.0 mi NNW 3.5 mph - N/A   Clear
7:55 PM 45.3 °F 43.0 °F 11.3 °F 25% 30.39 in 10.0 mi NNW 4.6 mph - N/A   Clear
8:15 PM 44.2 °F 41.0 °F 12.2 °F 27% 30.41 in 10.0 mi NNW 5.8 mph - N/A   Clear
8:35 PM 44.1 °F 40.8 °F 11.3 °F 26% 30.41 in 10.0 mi NNW 5.8 mph - N/A   Clear
8:55 PM 43.3 °F 40.7 °F 11.3 °F 27% 30.42 in 10.0 mi NNW 4.6 mph - N/A   Clear
9:15 PM 42.8 °F 40.1 °F 11.8 °F 28% 30.42 in 10.0 mi NNW 4.6 mph - N/A   Clear
9:35 PM 41.9 °F 38.2 °F 12.2 °F 30% 30.43 in 10.0 mi NNW 5.8 mph - N/A   Clear
9:55 PM 41.4 °F 38.4 °F 12.2 °F 30% 30.43 in 10.0 mi NNW 4.6 mph - N/A   Clear
10:15 PM 41.0 °F 37.1 °F 12.0 °F 31% 30.43 in 10.0 mi North 5.8 mph - N/A   Clear
10:35 PM 40.5 °F 35.1 °F 12.9 °F 33% 30.44 in 10.0 mi North 8.1 mph - N/A   Scattered Clouds
10:55 PM 40.3 °F 34.9 °F 12.9 °F 33% 30.44 in 10.0 mi North 8.1 mph - N/A   Scattered Clouds
11:15 PM 40.1 °F 36.1 °F 12.9 °F 33% 30.44 in 10.0 mi North 5.8 mph - N/A   Clear
11:35 PM 39.6 °F 33.5 °F 13.1 °F 34% 30.47 in 10.0 mi NNW 9.2 mph - N/A   Clear
11:55 PM 39.2 °F 31.6 °F 12.7 °F 34% 30.47 in 10.0 mi NNW 12.7 mph - N/A   Scattered Clouds